Flag for Turkey Weather past 2 weeks in Gaziantep, Turkey

Now
48 °F

Passing clouds.


Feels Like: 48 °F
Forecast: 50 / 70 °F
Wind: No wind

Location: Gaziantep Airport


UV Index: 7 (High)

Visibility: N/A


Pressure: 30.01 "Hg

Humidity: 87%

Dew point: 45 °F

Location of GaziantepLocation

Historic Weather in Gaziantep

°F

Gaziantep temperature yesterday

Maximum temperature yesterday: 75 °F (at 2:50 PM)
Minimum temperature yesterday: 45 °F (at 5:50 AM)
Average temperature yesterday: 61 °F

Past Weeks' High & Low Weather Summary

 TemperatureHumidityPressure
High75 °F (Apr 6, 2:20 PM)94% (Apr 15, 11:20 PM)30.15 "Hg (Apr 15, 11:20 PM)
Low39 °F (Apr 11, 6:20 AM)15% (Apr 6, 4:20 PM)29.83 "Hg (Apr 18, 2:50 AM)
Average59 °F60%29.99 "Hg
* Reported Apr 5 4:20 AM — Apr 20 4:20 AM, Gaziantep, Weather by CustomWeather, © 2014

Note: Actual official high and low records may vary slightly from our data, if they occured in-between our weather recording intervals... More about our weather records

Advertising

Historic Weather Conditions — Data for Previous 24 hours

 ConditionsComfort  
Time TempWeatherWind HumidityBarometerVisibility
4:20 AM
Apr 20
48 °FPassing clouds.No wind94%30.01 "HgN/A
3:50 AM50 °FPassing clouds.No wind88%30.01 "HgN/A
3:20 AM54 °FPassing clouds.1 mph82%30.01 "HgN/A
2:50 AM54 °FPassing clouds.5 mph82%30.01 "HgN/A
2:20 AM54 °FPartly cloudy.1 mph82%30.04 "HgN/A
1:50 AM54 °FPartly cloudy.5 mph88%30.04 "HgN/A
1:20 AM55 °FPartly cloudy.No wind82%30.04 "HgN/A
12:50 AM57 °FPartly cloudy.6 mph72%30.04 "HgN/A
12:20 AM57 °FPartly cloudy.2 mph77%30.07 "HgN/A
11:50 PM
Apr 19
59 °FPartly cloudy.3 mph72%30.07 "HgN/A
11:20 PM59 °FPartly cloudy.8 mph72%30.04 "HgN/A
10:50 PM59 °FPartly cloudy.5 mph72%30.07 "HgN/A
10:20 PM61 °FPartly cloudy.No wind68%30.07 "HgN/A
9:50 PM63 °FPartly cloudy.12 mph59%30.09 "HgN/A
9:20 PM57 °FPartly cloudy.2 mph82%30.09 "HgN/A
8:50 PM59 °FPartly cloudy.6 mph77%30.09 "HgN/A
8:20 PM59 °FPartly cloudy.2 mph77%30.09 "HgN/A
7:50 PM59 °FBroken clouds.No wind77%30.09 "HgN/A
7:20 PM63 °FSprinkles. Broken clouds.8 mph64%30.12 "HgN/A
6:50 PM61 °FSprinkles. Broken clouds.7 mph68%30.12 "HgN/A
6:20 PM64 °FBroken clouds.18 mph56%30.07 "HgN/A
5:50 PM68 °FSprinkles. Broken clouds.14 mph46%30.07 "HgN/A
5:20 PM70 °FSprinkles. Broken clouds.16 mph43%30.07 "HgN/A
4:50 PM72 °FSprinkles. Broken clouds.9 mph36%30.09 "HgN/A
4:20 PM72 °FScattered clouds.5 mph36%30.09 "HgN/A
3:50 PM73 °FScattered clouds.2 mph38%30.07 "HgN/A
3:20 PM73 °FBroken clouds.3 mph31%30.07 "HgN/A
2:50 PM75 °FScattered clouds.No wind29%30.07 "HgN/A
2:20 PM73 °FScattered clouds.3 mph31%30.07 "HgN/A
1:50 PM73 °FScattered clouds.2 mph27%30.07 "HgN/A
1:20 PM72 °FBroken clouds.7 mph29%30.09 "HgN/A
12:50 PM73 °FBroken clouds.7 mph33%30.09 "HgN/A
12:20 PM73 °FBroken clouds.2 mph31%30.09 "HgN/A
11:50 AM73 °FBroken clouds.1 mph31%30.09 "HgN/A
11:20 AM70 °FBroken clouds.No wind40%30.09 "HgN/A
10:50 AM72 °FBroken clouds.No wind29%30.09 "HgN/A
10:20 AM68 °FBroken clouds.No wind38%30.09 "HgN/A
9:50 AM70 °FBroken clouds.No wind33%30.07 "HgN/A
9:20 AM70 °FScattered clouds.1 mph31%30.07 "HgN/A
8:50 AM63 °FScattered clouds.No wind59%30.07 "HgN/A
8:20 AM59 °FScattered clouds.No wind63%30.07 "HgN/A
7:50 AM55 °FScattered clouds.No wind67%30.07 "HgN/A
7:20 AM52 °FSunny.No wind77%30.07 "Hg10 mi
6:50 AM48 °FClear.2 mph82%30.04 "Hg10 mi
6:20 AM45 °FClear.1 mph81%30.04 "Hg10 mi
5:50 AM45 °FClear.No wind87%30.04 "Hg10 mi
5:20 AM48 °FClear.No wind76%30.04 "Hg10 mi
Weather by CustomWeather, © 2014

See weather overview